Location: Dulzura
(32.6442°N, 116.7814°W)
Time: 15:50:04
(UTC+00:00)

ISS - Visible Passes

Search period start: 09 December 2023 00:00
Search period end: 19 December 2023 00:00
Orbit: 415 x 417 km, 51.6° (Epoch: 09 December)

Date Brightness Start Highest point End Pass type
(mag) Time Alt. Az. Time Alt. Az. Time Alt. Az.
09 Dec -0.5 01:50:42 10° W 01:52:32 14° SW 01:54:21 10° SSW visible
15 Dec -1.9 13:35:57 10° SSW 13:38:59 33° SE 13:42:02 10° ENE visible
16 Dec -0.8 12:47:52 10° S 12:50:07 17° SE 12:52:23 10° E visible
17 Dec -3.8 13:34:44 14° SW 13:37:30 64° NW 13:40:50 10° NE visible
18 Dec -2.7 12:49:14 43° ENE 12:49:14 43° ENE 12:51:44 10° NE visible
